EW7191 Weather Reports


Display with metric or nautical units.
time (UTC)temp
F
wind
direction
speed
MPH
gust
MPH
rain 1hr
in
rain 24hr
in
rain mn
in
humidity
%
barometer
mb
20260831003035 85 311 1.0 8.0 0.00 0.00 0.00 26 1017.4
20260831001533 86 320 0.0 6.0 0.00 0.00 0.00 25 1017.5
20260831000032 86 274 1.0 6.0 0.00 0.00 0.00 25 1017.5
20260830234527 86 251 3.0 8.0 0.00 0.00 0.00 26 1017.6
20260830233026 87 334 2.0 10.0 0.00 0.00 0.00 26 1017.8
20260830231524 86 325 2.0 7.0 0.00 0.00 0.00 25 1017.9
20260830230020 86 330 0.0 5.0 0.00 0.00 0.00 26 1018.2
20260830224523 86 320 1.0 7.0 0.00 0.00 0.00 26 1018.4
20260830223015 86 241 1.0 4.0 0.00 0.00 0.00 26 1018.7
20260830221512 85 220 0.0 5.0 0.00 0.00 0.00 28 1019.0
20260830220009 84 264 1.0 5.0 0.00 0.00 0.00 29 1019.3
20260830214505 83 251 0.0 2.0 0.00 0.00 0.00 30 1019.6
20260830213005 83 293 0.0 3.0 0.00 0.00 0.00 31 1019.9
20260830211600 81 283 0.0 5.0 0.00 0.00 0.00 33 1020.2
20260830210055 80 170 0.0 4.0 0.00 0.00 0.00 33 1020.5
20260830204553 80 285 2.0 4.0 0.00 0.00 0.00 34 1020.7
20260830203050 79 296 1.0 4.0 0.00 0.00 0.00 35 1020.9
20260830201548 78 238 2.0 5.0 0.00 0.00 0.00 36 1021.1
20260830200043 77 295 0.0 4.0 0.00 0.00 0.00 38 1021.3
20260830194548 75 240 1.0 4.0 0.00 0.00 0.00 40 1021.6
20260830193041 74 328 0.0 6.0 0.00 0.00 0.00 41 1021.9
20260830191533 73 141 0.0 4.0 0.00 0.00 0.00 42 1022.1
20260830190030 72 53 0.0 5.0 0.00 0.00 0.00 43 1022.3
20260830184530 70 293 0.0 4.0 0.00 0.00 0.00 46 1022.7
20260830183025 69 262 0.0 4.0 0.00 0.00 0.00 46 1022.9
20260830181520 68 207 0.0 3.0 0.00 0.00 0.00 50 1023.1
20260830180016 66 109 0.0 2.0 0.00 0.00 0.00 52 1023.3
20260830174513 66 261 0.0 4.0 0.00 0.00 0.00 53 1023.5
20260830173009 64 93 0.0 1.0 0.00 0.00 0.00 56 1023.6
20260830171507 64 250 1.0 4.0 0.00 0.00 0.00 57 1023.7
20260830170004 63 269 0.0 1.0 0.00 0.00 0.00 60 1023.9
20260830164603 62 265 0.0 1.0 0.00 0.00 0.00 60 1024.0
20260830163058 61 58 0.0 1.0 0.00 0.00 0.00 62 1024.2
20260830161556 60 136 0.0 0.0 0.00 0.00 0.00 64 1024.4
20260830160052 59 244 0.0 0.0 0.00 0.00 0.00 66 1024.6
20260830154550 57 243 0.0 1.0 0.00 0.00 0.00 68 1024.6
20260830153050 57 89 0.0 1.0 0.00 0.00 0.00 70 1024.8
20260830151645 53 82 0.0 0.0 0.00 0.00 0.00 82 1024.8
20260830150044 49 82 0.0 0.0 0.00 0.00 0.00 86 1024.7
20260830144547 47 82 0.0 0.0 0.00 0.00 0.00 88 1024.8
20260830143043 46 82 0.0 0.0 0.00 0.00 0.00 88 1024.7
20260830141542 45 82 0.0 0.0 0.00 0.00 0.00 88 1024.6
20260830140039 45 82 0.0 0.0 0.00 0.00 0.00 88 1024.5
20260830134541 45 82 0.0 0.0 0.00 0.00 0.00 87 1024.4
20260830133034 45 82 0.0 0.0 0.00 0.00 0.00 87 1024.3
20260830131537 46 82 0.0 0.0 0.00 0.00 0.00 87 1024.1
20260830130036 45 82 0.0 0.0 0.00 0.00 0.00 87 1024.1
20260830124530 46 82 0.0 0.0 0.00 0.00 0.00 86 1024.0
20260830123028 46 82 0.0 0.0 0.00 0.00 0.00 85 1023.9
20260830121525 47 82 0.0 0.0 0.00 0.00 0.00 84 1023.9
20260830120023 47 68 0.0 0.0 0.00 0.00 0.00 85 1023.8
20260830114522 47 68 0.0 0.0 0.00 0.00 0.00 84 1023.8
20260830113021 47 68 0.0 0.0 0.00 0.00 0.00 83 1023.6
20260830111519 48 68 0.0 0.0 0.00 0.00 0.00 82 1023.7
20260830110017 48 68 0.0 0.0 0.00 0.00 0.00 81 1023.9
20260830104515 49 68 0.0 0.0 0.00 0.00 0.00 81 1023.8
20260830103018 49 68 0.0 0.0 0.00 0.00 0.00 80 1023.8
20260830101614 49 68 0.0 0.0 0.00 0.00 0.00 80 1023.7
20260830100014 49 98 0.0 0.0 0.00 0.00 0.00 81 1023.8
20260830094512 49 98 0.0 0.0 0.00 0.00 0.00 81 1023.8
20260830093020 49 98 0.0 0.0 0.00 0.00 0.00 80 1023.8
20260830091513 49 98 0.0 0.0 0.00 0.00 0.00 78 1023.8
20260830090007 49 98 0.0 0.0 0.00 0.00 0.00 77 1023.8
20260830084519 50 98 0.0 0.0 0.00 0.00 0.00 76 1023.8
20260830083006 50 98 0.0 0.0 0.00 0.00 0.00 74 1023.8
20260830081635 51 98 0.0 0.0 0.00 0.00 0.00 73 1023.8
20260830081502 51 98 0.0 0.0 0.00 0.00 0.00 73 1023.8
20260830080107 52 98 0.0 0.0 0.00 0.00 0.00 73 1023.8
20260830074620 52 126 0.0 0.0 0.00 0.00 0.00 71 1023.8
20260830073055 53 125 0.0 0.0 0.00 0.00 0.00 70 1023.7
20260830071557 54 126 0.0 0.0 0.00 0.00 0.00 68 1023.7
20260830070048 55 126 0.0 0.0 0.00 0.00 0.00 66 1023.7
20260830064547 55 126 0.0 0.0 0.00 0.00 0.00 65 1023.7
20260830063048 56 126 0.0 0.0 0.00 0.00 0.00 63 1023.6
20260830061549 57 101 0.0 0.0 0.00 0.00 0.00 62 1023.5
20260830060047 58 94 0.0 0.0 0.00 0.00 0.00 60 1023.7
20260830054545 60 294 0.0 0.0 0.00 0.00 0.00 56 1023.5
20260830053045 62 294 0.0 0.0 0.00 0.00 0.00 54 1023.5
20260830051544 63 137 0.0 0.0 0.00 0.00 0.00 52 1023.5
20260830050043 64 232 0.0 2.0 0.00 0.00 0.00 51 1023.5
20260830044548 64 306 0.0 2.0 0.00 0.00 0.00 50 1023.4
20260830043046 65 253 0.0 2.0 0.00 0.00 0.00 49 1023.2
20260830041547 65 96 0.0 4.0 0.00 0.00 0.00 48 1023.1
20260830040042 66 326 0.0 1.0 0.00 0.00 0.00 47 1023.0
20260830034541 66 166 0.0 2.0 0.00 0.00 0.00 45 1022.7
20260830033051 66 342 1.0 9.0 0.00 0.00 0.00 44 1022.6
20260830031540 67 236 0.0 7.0 0.00 0.00 0.00 42 1022.4
20260830030043 68 53 0.0 6.0 0.00 0.00 0.00 42 1022.2
20260830024539 69 60 0.0 11.0 0.00 0.00 0.00 41 1022.1
20260830023040 70 87 0.0 10.0 0.00 0.00 0.00 41 1022.0
20260830021538 71 68 0.0 6.0 0.00 0.00 0.00 39 1021.9
20260830020038 72 330 0.0 3.0 0.00 0.00 0.00 39 1021.8
20260830014540 73 327 0.0 3.0 0.00 0.00 0.00 38 1021.6
20260830013036 74 328 0.0 9.0 0.00 0.00 0.00 37 1021.6
20260830011536 76 314 0.0 6.0 0.00 0.00 0.00 34 1021.5
20260830010045 77 319 0.0 5.0 0.00 0.00 0.00 34 1021.4
20260830004534 77 249 2.0 8.0 0.00 0.00 0.00 33 1021.4